When you browse on this site, cookies collect data to enhance your experience and personalize the content and advertising you see.
Visit our Privacy Policy to learn more. By continuing to use the site, you agree to this use of cookies and data.
  • In Schweiz
  • Länderverzeichnis
  • Für 7 Tage
  • Wassertemperatur
  • Satellitenkarten
  • Wetterkarte
  • Widgets
  • user-avatar
    Anmelden

    Stündliche Wetter Algier

    Heute, 23 Januar, Mittwoch

    Zeit Temperatur Niederschläge Wind Luftdruck Luftfeuchtigkeit
    00:00 +7°C° 0 mm 8 m/S 743 mmHg 76%
    01:00 +7°C° 1.5 mm 8 m/S 743 mmHg 78%
    02:00 +7°C° 1.5 mm 8 m/S 742 mmHg 81%
    03:00 +7°C° 1.5 mm 8 m/S 742 mmHg 83%
    04:00 +7°C° 1 mm 8 m/S 742 mmHg 79%
    05:00 +9°C° 1 mm 8 m/S 742 mmHg 76%
    06:00 +8°C° 0 mm 9 m/S 742 mmHg 73%
    07:00 +8°C° 0.7 mm 9 m/S 742 mmHg 72%
    08:00 +10°C° 0.7 mm 8 m/S 741 mmHg 71%
    09:00 +10°C° 0.7 mm 8 m/S 741 mmHg 70%
    10:00 +11°C° 0.5 mm 9 m/S 741 mmHg 68%
    11:00 +11°C° 0.5 mm 10 m/S 741 mmHg 67%
    12:00 +12°C° 0.5 mm 11 m/S 740 mmHg 65%
    13:00 +12°C° 0.2 mm 12 m/S 739 mmHg 66%
    14:00 +12°C° 0.2 mm 12 m/S 739 mmHg 67%
    15:00 +12°C° 0.2 mm 13 m/S 738 mmHg 68%
    16:00 +12°C° 0.8 mm 14 m/S 738 mmHg 68%
    17:00 +12°C° 0.8 mm 14 m/S 738 mmHg 69%
    18:00 +11°C° 0.8 mm 15 m/S 738 mmHg 69%
    19:00 +12°C° 2.5 mm 14 m/S 738 mmHg 71%
    20:00 +12°C° 2.5 mm 14 m/S 738 mmHg 72%
    21:00 +12°C° 2.5 mm 14 m/S 738 mmHg 74%
    22:00 +12°C° 1.7 mm 14 m/S 738 mmHg 72%
    23:00 +12°C° 1.7 mm 14 m/S 738 mmHg 70%

    Morgen, 24 Januar, Donnerstag

    Zeit Temperatur Niederschläge Wind Luftdruck Luftfeuchtigkeit
    00:00 +12°C° 1.7 mm 14 m/S 738 mmHg 68%
    01:00 +12°C° 0.4 mm 14 m/S 738 mmHg 65%
    02:00 +10°C° 0.4 mm 14 m/S 738 mmHg 63%
    03:00 +10°C° 0.4 mm 15 m/S 738 mmHg 60%
    04:00 +10°C° 0.4 mm 15 m/S 738 mmHg 60%
    05:00 +10°C° 0.4 mm 15 m/S 738 mmHg 60%
    06:00 +10°C° 0.4 mm 15 m/S 738 mmHg 60%
    07:00 +9°C° 0.7 mm 14 m/S 738 mmHg 60%
    08:00 +9°C° 0.7 mm 14 m/S 739 mmHg 61%
    09:00 +9°C° 0.7 mm 13 m/S 740 mmHg 61%
    10:00 +9°C° 0.2 mm 12 m/S 740 mmHg 57%
    11:00 +9°C° 0.2 mm 10 m/S 740 mmHg 53%
    12:00 +10°C° 0.2 mm 9 m/S 741 mmHg 49%
    13:00 +10°C° 0 mm 9 m/S 741 mmHg 48%
    14:00 +10°C° 0 mm 9 m/S 741 mmHg 47%
    15:00 +10°C° 0 mm 8 m/S 742 mmHg 46%
    16:00 +9°C° 0 mm 7 m/S 742 mmHg 49%
    17:00 +9°C° 0 mm 7 m/S 743 mmHg 51%
    18:00 +8°C° 0 mm 6 m/S 743 mmHg 53%
    19:00 +8°C° 0 mm 5 m/S 744 mmHg 53%
    20:00 +8°C° 0 mm 4 m/S 745 mmHg 53%
    21:00 +8°C° 0 mm 4 m/S 745 mmHg 53%
    22:00 +9°C° 0 mm 3 m/S 745 mmHg 52%
    23:00 +9°C° 0 mm 3 m/S 746 mmHg 52%

    übermorgen, 25 Januar, Freitag

    Zeit Temperatur Niederschläge Wind Luftdruck Luftfeuchtigkeit
    00:00 +8°C° 0 mm 3 m/S 746 mmHg 51%
    01:00 +8°C° 0 mm 3 m/S 746 mmHg 51%
    02:00 +8°C° 0 mm 3 m/S 746 mmHg 51%
    03:00 +8°C° 0 mm 2 m/S 746 mmHg 51%
    04:00 +8°C° 0 mm 3 m/S 746 mmHg 52%
    05:00 +8°C° 0 mm 3 m/S 746 mmHg 52%
    06:00 +8°C° 0 mm 3 m/S 746 mmHg 53%
    07:00 +8°C° 0 mm 4 m/S 747 mmHg 52%
    08:00 +9°C° 0 mm 5 m/S 747 mmHg 52%
    09:00 +10°C° 0 mm 6 m/S 748 mmHg 52%
    10:00 +10°C° 0 mm 6 m/S 748 mmHg 50%
    11:00 +11°C° 0 mm 6 m/S 748 mmHg 49%
    12:00 +12°C° 0 mm 7 m/S 748 mmHg 47%
    13:00 +12°C° 0 mm 7 m/S 748 mmHg 48%
    14:00 +12°C° 0 mm 7 m/S 747 mmHg 50%
    15:00 +12°C° 0 mm 7 m/S 747 mmHg 51%
    16:00 +11°C° 0 mm 7 m/S 747 mmHg 53%
    17:00 +10°C° 0 mm 7 m/S 747 mmHg 55%
    18:00 +10°C° 0 mm 6 m/S 747 mmHg 57%
    19:00 +10°C° 0 mm 6 m/S 747 mmHg 55%
    20:00 +10°C° 0 mm 6 m/S 748 mmHg 53%
    21:00 +10°C° 0 mm 6 m/S 748 mmHg 51%
    22:00 +10°C° 0.1 mm 6 m/S 748 mmHg 55%
    23:00 +10°C° 0.1 mm 7 m/S 748 mmHg 59%

    26 Januar, Samstag

    Zeit Temperatur Niederschläge Wind Luftdruck Luftfeuchtigkeit
    00:00 +11°C° 0.1 mm 7 m/S 748 mmHg 62%
    01:00 +10°C° 0.2 mm 7 m/S 748 mmHg 65%
    02:00 +10°C° 0.2 mm 6 m/S 749 mmHg 68%
    03:00 +10°C° 0.2 mm 6 m/S 749 mmHg 70%
    04:00 +10°C° 0 mm 5 m/S 749 mmHg 69%
    05:00 +10°C° 0 mm 5 m/S 749 mmHg 67%
    06:00 +9°C° 0 mm 5 m/S 750 mmHg 65%
    07:00 +11°C° 0 mm 4 m/S 750 mmHg 63%
    08:00 +11°C° 0 mm 4 m/S 751 mmHg 60%
    09:00 +11°C° 0 mm 4 m/S 752 mmHg 58%
    10:00 +12°C° 0 mm 3 m/S 752 mmHg 55%
    11:00 +13°C° 0 mm 3 m/S 752 mmHg 52%
    12:00 +14°C° 0 mm 2 m/S 752 mmHg 50%
    13:00 +14°C° 0 mm 1 m/S 751 mmHg 50%
    14:00 +14°C° 0 mm 1 m/S 751 mmHg 49%
    15:00 +14°C° 0 mm 0 m/S 751 mmHg 49%
    16:00 +14°C° 0 mm 1 m/S 750 mmHg 52%
    17:00 +13°C° 0 mm 1 m/S 750 mmHg 56%
    18:00 +12°C° 0 mm 1 m/S 750 mmHg 59%
    19:00 +12°C° 0 mm 2 m/S 750 mmHg 60%
    20:00 +12°C° 0 mm 2 m/S 750 mmHg 62%
    21:00 +10°C° 0 mm 3 m/S 750 mmHg 63%
    22:00 +10°C° 0 mm 3 m/S 750 mmHg 62%
    23:00 +10°C° 0 mm 3 m/S 749 mmHg 60%

    27 Januar, Sonntag

    Zeit Temperatur Niederschläge Wind Luftdruck Luftfeuchtigkeit
    00:00 +10°C° 0 mm 3 m/S 749 mmHg 59%
    01:00 +10°C° 0 mm 3 m/S 749 mmHg 61%
    02:00 +10°C° 0 mm 4 m/S 748 mmHg 63%
    03:00 +10°C° 0 mm 4 m/S 748 mmHg 66%
    04:00 +10°C° 0 mm 4 m/S 747 mmHg 64%
    05:00 +10°C° 0 mm 4 m/S 747 mmHg 63%
    06:00 +10°C° 0 mm 4 m/S 747 mmHg 62%
    07:00 +11°C° 0 mm 4 m/S 747 mmHg 59%
    08:00 +12°C° 0 mm 4 m/S 747 mmHg 56%
    09:00 +13°C° 0 mm 5 m/S 747 mmHg 54%
    10:00 +14°C° 0.2 mm 5 m/S 746 mmHg 56%
    11:00 +14°C° 0.2 mm 6 m/S 746 mmHg 59%
    12:00 +15°C° 0.2 mm 6 m/S 746 mmHg 62%
    13:00 +14°C° 0.7 mm 6 m/S 745 mmHg 65%
    14:00 +14°C° 0.7 mm 6 m/S 745 mmHg 68%
    15:00 +13°C° 0.7 mm 5 m/S 744 mmHg 71%
    16:00 +12°C° 0.3 mm 5 m/S 744 mmHg 71%
    17:00 +12°C° 0.3 mm 5 m/S 745 mmHg 71%
    18:00 +10°C° 0.3 mm 5 m/S 745 mmHg 72%
    19:00 +10°C° 0.6 mm 6 m/S 745 mmHg 68%
    20:00 +10°C° 0.6 mm 8 m/S 745 mmHg 63%
    21:00 +10°C° 0.6 mm 9 m/S 746 mmHg 59%
    22:00 +10°C° 0.1 mm 9 m/S 746 mmHg 59%
    23:00 +9°C° 0.1 mm 8 m/S 746 mmHg 58%

    28 Januar, Montag

    Zeit Temperatur Niederschläge Wind Luftdruck Luftfeuchtigkeit
    00:00 +9°C° 0.1 mm 8 m/S 746 mmHg 58%
    01:00 +7°C° 0.3 mm 8 m/S 746 mmHg 58%
    02:00 +7°C° 0.3 mm 8 m/S 746 mmHg 59%
    03:00 +7°C° 0.3 mm 8 m/S 745 mmHg 60%
    04:00 +7°C° 0.5 mm 8 m/S 745 mmHg 61%
    05:00 +6°C° 0.5 mm 8 m/S 745 mmHg 62%
    06:00 +6°C° 0.5 mm 8 m/S 745 mmHg 63%
    07:00 +6°C° 0.8 mm 9 m/S 745 mmHg 62%
    08:00 +6°C° 0.8 mm 9 m/S 745 mmHg 60%
    09:00 +7°C° 0.8 mm 9 m/S 745 mmHg 59%
    10:00 +7°C° 0.9 mm 9 m/S 745 mmHg 59%
    11:00 +7°C° 0.9 mm 9 m/S 745 mmHg 59%
    12:00 +7°C° 0.9 mm 9 m/S 745 mmHg 59%
    13:00 +7°C° 0.8 mm 10 m/S 745 mmHg 59%
    14:00 +7°C° 0.8 mm 10 m/S 745 mmHg 59%
    15:00 +7°C° 0.8 mm 10 m/S 745 mmHg 59%
    16:00 +7°C° 0.7 mm 9 m/S 745 mmHg 61%
    17:00 +7°C° 0.7 mm 9 m/S 745 mmHg 63%
    18:00 +6°C° 0.7 mm 8 m/S 745 mmHg 65%
    19:00 +7°C° 1 mm 8 m/S 745 mmHg 65%
    20:00 +7°C° 1 mm 9 m/S 745 mmHg 64%
    21:00 +7°C° 1 mm 9 m/S 745 mmHg 63%
    22:00 +7°C° 0.7 mm 9 m/S 745 mmHg 63%
    23:00 +7°C° 0.7 mm 9 m/S 745 mmHg 62%
    Mehr zeigen